User: anonymous   Login
Location: Unspecified
(0.0000°N, 0.0000°E)
Time: 03:25:42
(UTC+00:00)
Language:

Chandra X-Ray Observatory - Orbit

View from above orbital plane
View from above orbital plane
View from above satellite
View from above satellite

Ground track
Ground track

The orbit data is extracted from the following two-line orbital elements,

1 25867U 99040B   19084.60192244  .00000457  00000-0  00000+0 0  9995
2 25867  68.6066 277.2948 7110703 235.8125   0.2753  0.37804376 18493
Epoch (UTC): 25 March 2019 14:26:46
Eccentricity: 0.7110703
inclination: 68.6066°
perigee height: 16965 km
apogee height: 131863 km
right ascension of ascending node: 277.2948°
argument of perigee: 235.8125°
revolutions per day: 0.37804376
mean anomaly at epoch: 0.2753°
orbit number at epoch: 1849

The dashed part of the orbit path shows where the satellite is in the earth's shadow,  

DLR